[[{"header":{"parameterUnit":"m.s-1","parameterCategory":1,"la1":30.2991,"la2":30.254,"lo1":-89.0895,"lo2":-89.0444,"dy":0.0017,"dx":0.0017,"nx":28,"ny":28,"refTime":"2024-08-29T03:00:00:Z","depth":0,"parameterNumber":2,"parameterNumberName":"U-component_of_WINDS"},"data":[0,0,0,0,0,0,0,0,0,0,0,0,0,0,0,0,0,0,0,0,0,0,0,0,0,0,0,0,0,0,0,0,0,0,0,0,0,0,0,0,0,0,0,0,0,0,0,0,0,0,0,0,0,0,0,0,0,0,-3.1956,-3.1957,0,-3.2053,-3.2054,-3.2055,-3.1976,-3.1972,-3.1969,-3.1966,-3.2066,-3.2072,-3.2078,0,0,0,0,0,0,0,0,0,0,0,0,0,-3.1704,-3.1709,-3.1956,-3.1957,-3.1958,-3.2053,-3.2054,-3.2055,-3.1976,-3.1972,-3.1968,-3.1964,-3.2064,-3.2071,-3.2078,0,0,0,0,0,0,0,0,0,0,0,0,0,-3.1808,-3.171,-3.1956,-3.193,-3.1929,-3.2053,-3.2054,-3.2056,-3.1977,-3.1972,-3.1967,-3.1963,-3.2062,-3.2071,-3.2079,-3.2233,0,0,-3.2106,-3.211,0,0,0,0,0,0,0,0,-3.1802,-3.1818,-3.1933,-3.1932,-3.1931,-3.1997,-3.2002,-3.2115,-3.1979,-3.1959,-3.1966,-3.196,-3.2047,-3.2057,-3.2086,-3.2238,-3.2242,-3.2107,-3.2112,-3.2116,-3.2118,0,0,0,0,0,0,0,-3.1795,-3.1813,-3.1994,-3.1935,-3.1934,-3.1914,-3.1924,-3.2023,-3.203,-3.196,-3.1955,-3.1967,-3.2046,-3.2078,-3.2088,-3.2244,-3.2106,-3.2114,-3.2119,-3.2123,-3.2528,-3.2533,0,0,0,0,0,0,-3.179,-3.1807,-3.1991,-3.1997,-3.1853,-3.1923,-3.1933,-3.1981,-3.2029,-3.2031,-3.1971,-3.1963,-3.2066,-3.2078,-3.2091,-3.2275,-3.2115,-3.2124,-3.2129,-3.2522,-3.2529,-3.2535,0,0,0,0,0,0,-3.1785,-3.1808,-3.1987,-3.1901,-3.1922,-3.1933,-3.1987,-3.1986,-3.2017,-3.2037,-3.2038,-3.2003,-3.2062,-3.2079,-3.2199,-3.2277,-3.2127,-3.2135,-3.2516,-3.2524,-3.2532,-3.2644,0,0,0,0,0,0,-3.1778,-3.1806,-3.1864,-3.1903,-3.1927,-3.2093,-3.1992,-3.1991,-3.2033,-3.2023,-3.2067,-3.207,-3.206,-3.2186,-3.2207,-3.2287,-3.2142,-3.2508,-3.2519,-3.2529,-3.2633,-3.2655,-3.2673,0,0,0,0,0,-3.177,-3.1892,-3.1868,-3.189,-3.2,-3.2097,-3.2111,-3.2097,-3.2039,-3.2098,-3.2111,-3.2068,-3.2266,-3.2199,-3.2222,-3.2305,-3.2503,-3.2516,-3.2528,-3.2624,-3.265,-3.2673,0,0,0,0,0,0,-3.1862,-3.1896,-3.187,-3.2008,-3.2051,-3.2084,-3.2157,-3.2126,-3.2185,-3.2174,-3.2154,-3.2165,-3.2291,-3.231,-3.2235,-3.2457,-3.2375,-3.2393,-3.244,-3.2465,-3.2485,-3.2478,-3.2149,0,0,0,0,0,-3.1899,-3.1975,-3.2001,-3.212,-3.2143,-3.2147,-3.2189,-3.2174,-3.2217,-3.2235,-3.2256,-3.23,-3.2372,-3.242,-3.2487,-3.2636,-3.2644,-3.2704,-3.2725,-3.2741,-3.2756,-3.2837,-3.2864,-3.2576,-3.2576,-3.2575,0,0,-3.1975,-3.2003,-3.2052,-3.214,-3.2171,-3.225,-3.2162,-3.225,-3.2309,-3.2248,-3.2362,-3.238,-3.2428,-3.2563,-3.2623,-3.2583,-3.2838,-3.2757,-3.277,-3.2776,-3.2853,-3.288,-3.2904,-3.2584,-3.2583,-3.2581,0,0,-3.2154,-3.2183,-3.2286,-3.2319,-3.2368,-3.237,-3.2395,-3.2434,-3.2443,-3.2557,-3.2514,-3.2584,-3.2708,-3.2744,-3.2778,-3.2974,-3.2936,-3.2996,-3.3101,-3.318,-3.3203,-3.3223,-3.3293,-3.3318,-3.3011,-3.3012,-3.3012,0,-3.2243,-3.236,-3.2343,-3.2434,-3.2474,-3.2424,-3.2528,-3.2561,-3.2629,-3.2658,-3.2612,-3.2767,-3.2796,-3.2939,-3.2987,-3.3016,-3.3045,-3.299,-3.3201,-3.3221,-3.3239,-3.3305,-3.3332,-3.3019,-3.3018,-3.3017,-3.3017,0,-3.2467,-3.2549,-3.2627,-3.2694,-3.2743,-3.284,-3.2838,-3.289,-3.2872,-3.2879,-3.2997,-3.303,-3.3103,-3.3136,-3.3119,-3.3277,-3.3251,-3.3204,-3.312,-3.3274,-3.3336,-3.3361,-3.3029,-3.3026,-3.3024,-3.3022,0,0,-3.2706,-3.2763,-3.2792,-3.2822,-3.2872,-3.2936,-3.3032,-3.3103,-3.3148,-3.3197,-3.3277,-3.3384,-3.3341,-3.3381,-3.3368,-3.3437,-3.359,-3.3381,-3.3382,-3.3418,-3.3766,-3.3801,-3.3831,-3.3566,-3.3571,-3.3574,-3.3762,0,-3.2887,-3.3053,-3.3041,-3.3198,-3.3274,-3.3228,-3.3311,-3.3352,-3.3362,-3.3428,-3.3439,-3.3515,-3.3452,-3.3476,-3.3543,-3.3557,-3.3659,-3.3543,-3.364,-3.3644,-3.3629,-3.3863,-3.39,-3.4075,-3.3786,-3.379,-3.3793,0,-3.312,-3.3177,-3.3342,-3.3381,-3.3413,-3.3488,-3.3553,-3.3618,-3.3663,-3.3665,-3.371,-3.3686,-3.3784,-3.3699,-3.3834,-3.3755,-3.3794,-3.3808,-3.3814,-3.3822,-3.3727,-3.3877,-3.4131,-3.4157,-3.3831,-3.3828,-3.3825,0,-3.3277,-3.3396,-3.3509,-3.3537,-3.3586,-3.364,-3.3663,-3.3704,-3.3748,-3.3806,-3.3834,-3.3902,-3.394,-3.3994,-3.3989,-3.3928,-3.4126,-3.4041,-3.413,-3.4131,-3.4173,-3.417,-3.4437,-3.42,-3.42,-3.4199,-3.4199,0,-3.348,-3.3582,-3.3581,-3.3651,-3.3765,-3.3751,-3.3864,-3.3881,-3.3918,-3.3991,-3.3955,-3.4025,-3.4015,-3.4085,-3.4082,-3.4194,-3.4211,-3.4216,-3.4214,-3.4219,-3.4218,-3.4243,-3.4231,-3.4206,-3.4205,-3.4203,-3.4202,0,-3.3674,-3.3677,-3.3798,-3.3836,-3.3848,-3.393,-3.3962,-3.4029,-3.4036,-3.4129,-3.415,-3.4162,-3.4243,-3.4244,-3.4336,-3.4334,-3.4471,-3.4455,-3.4455,-3.4452,-3.4542,-3.4533,-3.4833,-3.4872,-3.4611,-3.4613,-3.4615,0,-3.3803,-3.3881,-3.3927,-3.3973,-3.4,-3.4075,-3.412,-3.411,-3.4158,-3.4217,-3.4277,-3.4354,-3.4415,-3.4547,-3.4564,-3.4635,-3.462,-3.4721,-3.463,-3.4633,-3.4621,-3.4616,-3.4624,-3.4738,-3.4741,-3.4743,-3.4745,0,-3.4031,-3.4029,-3.4095,-3.4163,-3.4218,-3.4271,-3.4319,-3.436,-3.4355,-3.4412,-3.4494,-3.4542,-3.4636,-3.4714,-3.4782,-3.4807,-3.4776,-3.4773,-3.4798,-3.4803,-3.48,-3.4803,-3.4503,-3.4766,-3.4764,-3.4763,-3.4761,-3.476,-3.4196,-3.4264,-3.4307,-3.4382,-3.4418,-3.4465,-3.4529,-3.4545,-3.4613,-3.4689,-3.468,-3.4771,-3.4816,-3.4905,-3.4936,-3.5008,-3.4973,-3.5008,-3.5017,-3.5026,-3.5036,-3.4789,-3.502,-3.502,-3.5019,-3.5019,-3.5018,0,-3.4422,-3.4448,-3.4518,-3.4587,-3.4647,-3.4613,-3.4666,-3.4718,-3.4799,-3.4843,-3.4904,-3.4999,-3.5075,-3.5099,-3.5172,-3.5225,-3.5213,-3.5244,-3.524,-3.5246,-3.5063,-3.5034,-3.5253,-3.5253,-3.5253,-3.5253,-3.5253,-3.5253,-3.4547,-3.4659,-3.4663,-3.4792,-3.4817,-3.4907,-3.494,-3.4983,-3.5018,-3.5126,-3.5188,-3.5203,-3.524,-3.5316,-3.5384,-3.5389,-3.5418,-3.5455,-3.5455,-3.5283,-3.5259,-3.5236,-3.5209,-3.5462,-3.5462,-3.5632,-3.5634,-3.5635]},{"header":{"parameterUnit":"m.s-1","parameterCategory":1,"la1":30.2991,"la2":30.254,"lo1":-89.0895,"lo2":-89.0444,"dy":0.0017,"dx":0.0017,"nx":28,"ny":28,"refTime":"2024-08-29T03:00:00:Z","depth":0,"parameterNumber":3,"parameterNumberName":"V-component_of_WINDS"},"data":[0,0,0,0,0,0,0,0,0,0,0,0,0,0,0,0,0,0,0,0,0,0,0,0,0,0,0,0,0,0,0,0,0,0,0,0,0,0,0,0,0,0,0,0,0,0,0,0,0,0,0,0,0,0,0,0,0,0,0.4257,0.4257,0,0.425,0.425,0.425,0.4207,0.4205,0.4204,0.4203,0.4198,0.4199,0.42,0,0,0,0,0,0,0,0,0,0,0,0,0,0.4236,0.4237,0.4257,0.4257,0.4257,0.425,0.425,0.425,0.4207,0.4205,0.4204,0.4203,0.4198,0.4199,0.42,0,0,0,0,0,0,0,0,0,0,0,0,0,0.4239,0.4237,0.4257,0.4235,0.4232,0.425,0.425,0.425,0.4207,0.4205,0.4204,0.4202,0.4197,0.4199,0.42,0.4239,0,0,0.4204,0.4204,0,0,0,0,0,0,0,0,0.4239,0.424,0.4238,0.4236,0.4234,0.4228,0.4241,0.4246,0.4207,0.4217,0.4203,0.4202,0.4209,0.4209,0.4212,0.4239,0.4239,0.4204,0.4204,0.4205,0.4205,0,0,0,0,0,0,0,0.4239,0.424,0.4254,0.4238,0.4236,0.4226,0.4224,0.4241,0.4222,0.4216,0.4213,0.4212,0.4208,0.421,0.4211,0.4239,0.4204,0.4205,0.4206,0.4206,0.43,0.4302,0,0,0,0,0,0,0.4241,0.424,0.4255,0.4254,0.4232,0.4227,0.4226,0.4231,0.4222,0.4219,0.4214,0.421,0.4209,0.421,0.4211,0.4257,0.4205,0.4206,0.4207,0.4298,0.4301,0.4302,0,0,0,0,0,0,0.4241,0.4243,0.4255,0.4246,0.4247,0.4229,0.4236,0.4232,0.4234,0.422,0.4217,0.422,0.4208,0.4209,0.4233,0.4257,0.4207,0.4208,0.4296,0.4299,0.4301,0.4351,0,0,0,0,0,0,0.4241,0.4243,0.4257,0.4247,0.4248,0.4276,0.4237,0.4233,0.4237,0.4232,0.4225,0.4222,0.4207,0.4231,0.4234,0.4257,0.4209,0.4294,0.4298,0.4301,0.4347,0.4354,0.4361,0,0,0,0,0,0.424,0.4271,0.4258,0.426,0.4265,0.4278,0.4278,0.4259,0.4239,0.4253,0.4244,0.4222,0.4254,0.4234,0.4237,0.4261,0.4293,0.4297,0.43,0.4343,0.4353,0.4361,0,0,0,0,0,0,0.4285,0.4269,0.4255,0.4283,0.4282,0.427,0.4288,0.427,0.4275,0.427,0.4247,0.4246,0.4274,0.427,0.4248,0.43,0.4269,0.4274,0.4301,0.431,0.4317,0.4318,0.421,0,0,0,0,0,0.4298,0.4309,0.4295,0.4322,0.4322,0.4305,0.431,0.4296,0.4294,0.4294,0.4286,0.4286,0.4296,0.4303,0.4311,0.4346,0.4345,0.4364,0.4372,0.4378,0.4382,0.4402,0.4411,0.4315,0.4315,0.4315,0,0,0.4325,0.4318,0.4327,0.4331,0.4328,0.4342,0.4305,0.432,0.433,0.4296,0.4318,0.4313,0.4311,0.4342,0.4354,0.4339,0.4408,0.4383,0.4387,0.4389,0.4407,0.4416,0.4424,0.4318,0.4318,0.4317,0,0,0.4382,0.4377,0.4399,0.4398,0.4395,0.4384,0.4389,0.4381,0.4376,0.4398,0.4373,0.4385,0.4402,0.4402,0.4405,0.4464,0.4445,0.4467,0.4505,0.4525,0.4533,0.4539,0.4562,0.457,0.4472,0.4472,0.4472,0,0.4416,0.4434,0.4413,0.4431,0.4434,0.4404,0.4427,0.4427,0.4427,0.443,0.4413,0.4435,0.4431,0.4462,0.4477,0.4479,0.4486,0.4468,0.4533,0.454,0.4546,0.4567,0.4575,0.4475,0.4475,0.4474,0.4474,0,0.4478,0.4491,0.4509,0.451,0.4515,0.4536,0.4519,0.4527,0.4513,0.4505,0.4528,0.4524,0.4531,0.4537,0.4523,0.4567,0.4557,0.4537,0.4506,0.4558,0.4577,0.4585,0.4479,0.4478,0.4477,0.4476,0,0,0.4561,0.4551,0.4558,0.4559,0.4554,0.4564,0.4584,0.4591,0.46,0.4601,0.4618,0.4634,0.4616,0.4619,0.4605,0.4622,0.4672,0.46,0.46,0.4614,0.4721,0.4737,0.4746,0.4659,0.466,0.4661,0.4721,0,0.4616,0.4648,0.4631,0.4666,0.4679,0.4651,0.4669,0.4669,0.4662,0.4673,0.4665,0.4677,0.4651,0.4653,0.4669,0.4662,0.4693,0.4658,0.4676,0.4676,0.4677,0.4756,0.4772,0.4829,0.4729,0.473,0.4731,0,0.4684,0.4688,0.4725,0.4719,0.4724,0.474,0.4746,0.4756,0.4756,0.475,0.4755,0.4737,0.4758,0.4728,0.4757,0.4733,0.474,0.4738,0.4739,0.4741,0.4707,0.476,0.4846,0.4855,0.4742,0.4741,0.4741,0,0.4742,0.4758,0.4782,0.4783,0.4777,0.4789,0.4787,0.4786,0.4792,0.4798,0.4802,0.481,0.4815,0.4822,0.4809,0.4788,0.484,0.4808,0.4837,0.4837,0.4849,0.4848,0.4938,0.4852,0.4852,0.4852,0.4852,0,0.4805,0.4829,0.4808,0.4823,0.485,0.483,0.4857,0.4853,0.4852,0.4867,0.4844,0.4858,0.4839,0.4852,0.4841,0.4868,0.487,0.4866,0.4863,0.4869,0.4869,0.4873,0.4869,0.4854,0.4854,0.4853,0.4853,0,0.4875,0.4861,0.4886,0.4879,0.4878,0.4898,0.4892,0.4906,0.4898,0.4917,0.4921,0.4909,0.4923,0.491,0.4924,0.4917,0.4952,0.4943,0.4952,0.495,0.498,0.4977,0.5075,0.5087,0.4993,0.4994,0.4995,0,0.4916,0.4934,0.4929,0.4937,0.4936,0.4949,0.4956,0.4938,0.4946,0.4949,0.4963,0.4976,0.4985,0.5009,0.5002,0.5013,0.5005,0.5038,0.5006,0.5012,0.5007,0.5006,0.5008,0.5045,0.5046,0.5047,0.5048,0,0.4991,0.4984,0.4994,0.5002,0.501,0.5016,0.502,0.5028,0.501,0.5021,0.5035,0.5042,0.5057,0.507,0.5079,0.5078,0.5061,0.5058,0.5065,0.5071,0.5076,0.5075,0.4971,0.5056,0.5055,0.5054,0.5054,0.5054,0.5048,0.5063,0.5063,0.5075,0.5076,0.5081,0.5094,0.5089,0.51,0.511,0.51,0.5118,0.5119,0.513,0.5132,0.5146,0.5132,0.5143,0.5146,0.5149,0.5153,0.5073,0.5148,0.5148,0.5147,0.5147,0.5147,0,0.5123,0.5122,0.5133,0.514,0.515,0.5132,0.5136,0.5146,0.5162,0.5165,0.5175,0.5192,0.5206,0.52,0.5212,0.5226,0.5218,0.5229,0.5228,0.5229,0.5164,0.5157,0.5235,0.5235,0.5235,0.5235,0.5235,0.5235,0.5163,0.5188,0.5182,0.5208,0.5207,0.5224,0.5228,0.5233,0.5235,0.5256,0.5267,0.5263,0.5263,0.5276,0.5288,0.5286,0.5292,0.5307,0.5302,0.5242,0.5233,0.5225,0.5218,0.5308,0.5308,0.5366,0.5366,0.5367]}]]